Location: Hurecourt
(47.9030°N, 6.0653°E)
Time: 08:25:53
(UTC+00:00)

Abrixas rocket - Pass Details

Date: 14 July 2020
Orbit: 338 x 346 km, 48.4° (Epoch: 13 August)

Event Time Altitude Azimuth Distance (km) Brightness Sun altitude
Exits shadow 01:34:26 22° 279° (W) 799 3.5 -16.0°
Maximum altitude 01:36:06 85° 193° (SSW) 344 1.7 -15.9°
Drops below altitude 10° 01:38:58 10° 103° (ESE) 1,278 4.9 -15.7°
Sets 01:40:58 0° 103° (ESE) 2,116 6.0 -15.5°
